Regional Weather Roundup
Issued by NWS

Home | Current Version | Previous Version | Text Only | Print | Product List | Glossary On
Versions: 1 2 3 4 5 6 7 8 9 10 11 12 13 14 15 16 17 18 19 20 21 22 23 24 25 26 27 28 29 30 31 32 33 34 35 36 37 38 39 40 41 42 43 44 45 46 47 48 49 50
000
ASUS45 KTFX 161619
RWRMT
MONTANA HOURLY WEATHER ROUNDUP
NATIONAL WEATHER SERVICE GREAT FALLS MT
1019 AM MDT TUE SEP 16 2014

NOTE: "FAIR" INDICATES FEW OR NO CLOUDS BELOW 12000 FEET WITH NO
SIGNIFICANT WEATHER AND/OR OBSTRUCTIONS TO VISIBILITY.

* THESE STATIONS ARE NOT UNDER NWS QUALITY CONTROL. THEY DO NOT
   REPORT WEATHER SUCH AS PRECIPITATION OR FOG.

MTZ001>007-043-161700-
WEST OF THE DIVIDE
CITY           SKY/WX    TMP DP  RH WIND       PRES   REMARKS
KALISPELL      PTCLDY    55  43  64 N3        30.01F
MISSOULA       PTSUNNY   54  36  51 S3        30.06S
BUTTE          PTSUNNY   52  34  50 CALM      30.16S
MULLAN PASS    PTSUNNY   63  34  34 S5        30.10S
* ESSEX        N/A       42  33  71 SE6        N/A
* LINCOLN      N/A       42  31  65 NW1        N/A
* LOOKOUT PASS N/A       55  37  51 SE4        N/A
* POLSON       N/A       54  43  67 NE1        N/A
* RONAN APT    PTCLDY    61  45  56 N5         N/A
* SEELEY LAKE  N/A       47  34  61 S2         N/A
* THOMP F APT  PTSUNNY   63  39  41 N/A        N/A
$$

MTZ008-052>055-161700-
SOUTHWEST MONTANA
CITY           SKY/WX    TMP DP  RH WIND       PRES   REMARKS
BOZEMAN        PTCLDY    57  41  55 CALM      30.12F
DILLON         PTSUNNY   57  34  42 SW5       30.14F
W YELLOWSTONE  PTSUNNY   46  32  58 CALM      30.28S
* THREE FORKS  PTSUNNY   54  36  51 N/A        N/A
* BOULDER HILL N/A       55  30  39 SW11       N/A
* MONIDA PASS  N/A       59  31  35 NW2        N/A
* RAYNOLDS PAS N/A       56  35  45 SE8        N/A
* WHITEHALL    N/A       52  39  61 E2         N/A
* WISE RIVER   N/A       39  29  67 NW4        N/A
$$

MTZ009>010-012-014-046-048-049-054-161700-
EAST SLOPES AND CENTRAL MONTANA
CITY           SKY/WX    TMP DP  RH WIND       PRES   REMARKS
CUT BANK       PTCLDY    54  41  62 N7        30.00F
GREAT FALLS    PTCLDY    64  39  40 SW6       30.00S
HELENA         PTCLDY    55  37  51 CALM      30.08F
MALMSTROM AFB  SUNNY     57  43  60 W2        30.01F
* CONRAD       PTCLDY    63  54  73 N/A        N/A
* EAST GLACIER N/A       61  34  36 SW2G13     N/A
* MONARCH      N/A       57  33  40 S6         N/A
* PENDROY      N/A       66  37  34 S4         N/A
* ROGERS PASS  N/A       59  30  33 SE8        N/A
* SAINT MARY   N/A       45  41  86 S2         N/A
* SWEET GRASS  N/A       64  37  37 W6         N/A
$$

MTZ011-013-016-021-035-040-045-047-050-051-161700-
NORTH CENTRAL MONTANA
CITY           SKY/WX    TMP DP  RH WIND       PRES   REMARKS
HAVRE          PTCLDY    55  46  72 W5        29.99S
LEWISTOWN      PTCLDY    64  43  47 SE5       30.04S
* CHINOOK      SUNNY     54  45  72 CALM      29.99S
* FORT BENTON  PTCLDY    55  43  64 CALM      30.00F
* CHESTER      N/A       58  45  62 N/A        N/A
* DENTON       N/A       59  41  51 E1         N/A
* GEYSER       N/A       70  38  31 SW2        N/A
* JUDITH GAP   N/A       59  45  60 SE6        N/A
* LOMA         N/A       50  42  74 S1         N/A
$$

MTZ017>020-022>027-061-062-161700-
NORTHEAST MONTANA
CITY           SKY/WX    TMP DP  RH WIND       PRES   REMARKS
GLASGOW        SUNNY     61  37  41 SE8       29.99F
GLENDIVE       SUNNY     61  43  52 CALM      30.02F
JORDAN         PTCLDY    57  45  64 CALM      29.99F
SIDNEY         SUNNY     57  43  60 CALM      30.02F
WOLF POINT     SUNNY     55  37  51 CALM      30.01F
* BEAVER HILL  N/A       62  46  56 N/A        N/A
* CIRCLE       N/A       63  46  54 N/A        N/A
* LINDSAY DVD  N/A       64  41  43 E7         N/A
* NAVAJO       N/A       65  35  33 S6         N/A
* SACO         N/A       54  41  62 NE2        N/A
$$

MTZ028>042-056>058-161700-
SOUTHCENTRAL AND SOUTHEAST MONTANA
CITY           SKY/WX    TMP DP  RH WIND       PRES   REMARKS
BAKER          SUNNY     64  48  56 CALM      30.02F
BILLINGS       PTCLDY    59  43  56 SW14      30.03F
LIVINGSTON     PTCLDY    61  39  44 N5        30.10S
MILES CITY     PTCLDY    54  45  72 S5        30.01S
* LAUREL APT   PTCLDY    61  43  52 S10G15     N/A
* ROUNDUP APT  PTCLDY    57  43  60 SW7        N/A
* ALZADA       N/A       64  48  56 W4         N/A
* HYSHAM       N/A       61  41  48 W9         N/A
* LAME DEER    N/A       67  34  29 W6         N/A
* REED POINT   N/A       53  42  66 W7         N/A
* ROSCOE HILL  N/A       70  23  17 N/A        N/A
$$

REGIONAL REPORTS...DAKOTAS
CITY           SKY/WX    TMP DP  RH WIND       PRES   REMARKS
WILLISTON      SUNNY     55  41  59 CALM      30.02S
DICKINSON      SUNNY     61  46  58 CALM      29.99F
BEACH          N/A       63  48  58 CALM      30.02S
CROSBY         SUNNY     63  39  41 S5        30.01S
TIOGA          SUNNY     64  39  40 NW5       30.04S
WATFORD CITY   SUNNY     59  41  51 CALM      29.99F
BISMARCK       SUNNY     59  45  60 CALM      30.02F
GRAND FORKS    SUNNY     64  43  47 SW12      30.02S
FARGO          SUNNY     61  41  48 S10       30.06F
BUFFALO SD     SUNNY     63  46  54 W5        29.96S
RAPID CITY     SUNNY     70  46  42 N7        30.03S
$$

REGIONAL REPORTS...WYOMING/IDAHO/WASHINGTON
CITY           SKY/WX    TMP DP  RH WIND       PRES   REMARKS
GILLETTE       SUNNY     70  45  41 SW9       30.08S
SHERIDAN       SUNNY     68  43  40 CALM      30.05F
CODY           PTCLDY   N/A N/A N/A N5        30.11F
YELLOWSTONE LA PTSUNNY   50  41  71 CALM      30.35F
SALMON         PTSUNNY   54  39  57 CALM      30.13S
MULLAN PASS    PTSUNNY   63  34  34 S5        30.10S
SAND POINT     PTCLDY    55  43  64 CALM      29.96S
SPOKANE        PTSUNNY   61  39  44 NE9       29.91F
$$

REGIONAL REPORTS...ALBERTA
CITY           SKY/WX    TMP DP  RH WIND       PRES   REMARKS
CALGARY        SUNNY     59  43  56 VRB2      29.95F
LETHBRIDGE     SUNNY     61  41  48 SW8       29.95F
MEDICINE HAT   SUNNY     59  48  67 SW5       29.95S
EDMONTON       SUNNY     61  46  58 S6        29.89S
WATERTON GATE  N/A       64  39  40 S10        N/A
CARDSTON       N/A       59  46  62 SE3        N/A
$$

REGIONAL REPORTS...SASKATCHEWAN
CITY           SKY/WX    TMP DP  RH WIND       PRES   REMARKS
SWIFT CURRENT  SUNNY     64  41  43 SW16G25   29.95F
MOOSE JAW      PTSUNNY   64  45  50 SW3       29.97F
REGINA         SUNNY     59  45  60 S3        29.98S
VAL MARIE      N/A       61  43  52 S2         N/A
ASSINIBOIA     N/A       61  39  44 SW6        N/A
CORONACH       N/A       59  45  60 E5         N/A

$$




USA.gov is the U.S. government's official web portal to all federal, state and local government web resources and services.